User: anonymous   Login
Location: Mentone
(34.5413°N, 85.5351°W)
Time: 08:52:41
(UTC-05:00)
Language:

Uosat F - Orbit

View from above orbital plane
View from above orbital plane
View from above satellite
View from above satellite

Ground track
Ground track

The orbit data is extracted from the following two-line orbital elements,

1 21575U 91050B   17085.64852641 +.00000031 +00000-0 +24267-4 0  9991
2 21575 098.7617 100.0682 0007311 177.2078 182.9152 14.40788967349199
Epoch (UTC): 26 March 2017 15:33:52
Eccentricity: 0.0007311
inclination: 98.7617°
perigee height: 750 km
apogee height: 761 km
right ascension of ascending node: 100.0682°
argument of perigee: 177.2078°
revolutions per day: 14.40788967
mean anomaly at epoch: 182.9152°
orbit number at epoch: 34919

The dashed part of the orbit path shows where the satellite is in the earth's shadow,  

DLR